Year,Month,Day,Hour,Minute,Value (Times are PST for temperature in C)
2007,07,01,00,00,12.20
2007,07,01,00,01,12.20
2007,07,01,00,02,12.10
2007,07,01,00,03,12.10
2007,07,01,00,04,12.10
2007,07,01,00,05,12.10
2007,07,01,00,06,12.10
2007,07,01,00,07,12.10
2007,07,01,00,08,12.00
2007,07,01,00,09,12.00
2007,07,01,00,10,12.00
2007,07,01,00,11,12.00
2007,07,01,00,12,12.00
2007,07,01,00,13,11.90
2007,07,01,00,14,11.90
2007,07,01,00,15,11.90
2007,07,01,00,16,11.90
2007,07,01,00,17,11.90
2007,07,01,00,18,11.90
2007,07,01,00,19,11.90
2007,07,01,00,20,11.90
2007,07,01,00,21,11.90
2007,07,01,00,22,11.90
2007,07,01,00,23,11.80
2007,07,01,00,24,11.80
2007,07,01,00,25,11.80
2007,07,01,00,26,11.80
2007,07,01,00,27,11.80
2007,07,01,00,28,11.80
2007,07,01,00,29,11.80
2007,07,01,00,30,11.80
2007,07,01,00,31,11.80
2007,07,01,00,32,11.80
2007,07,01,00,33,11.80
2007,07,01,00,34,11.80
2007,07,01,00,35,11.70
2007,07,01,00,36,11.70
2007,07,01,00,37,11.70
2007,07,01,00,38,11.70
2007,07,01,00,39,11.70
2007,07,01,00,40,11.70
2007,07,01,00,41,11.70
2007,07,01,00,42,11.70
2007,07,01,00,43,11.70
2007,07,01,00,44,11.70
2007,07,01,00,45,11.70
2007,07,01,00,46,11.70
2007,07,01,00,47,11.70
2007,07,01,00,48,11.70
2007,07,01,00,49,11.70
2007,07,01,00,50,11.70
2007,07,01,00,51,11.70
2007,07,01,00,52,11.70
2007,07,01,00,53,11.70
2007,07,01,00,54,11.70
2007,07,01,00,55,11.70
2007,07,01,00,56,11.70
2007,07,01,00,57,11.70
2007,07,01,00,58,11.70
2007,07,01,00,59,11.70
2007,07,01,01,00,11.70
2007,07,01,01,01,11.60
2007,07,01,01,02,11.60
2007,07,01,01,03,11.60
2007,07,01,01,04,11.60
2007,07,01,01,05,11.60
2007,07,01,01,06,11.60
2007,07,01,01,07,11.60
2007,07,01,01,08,11.50
2007,07,01,01,09,11.50
2007,07,01,01,10,11.50
2007,07,01,01,11,11.50
2007,07,01,01,12,11.50
2007,07,01,01,13,11.40
2007,07,01,01,14,11.40
2007,07,01,01,15,11.40
2007,07,01,01,16,11.40
2007,07,01,01,17,11.40
2007,07,01,01,18,11.40
2007,07,01,01,19,11.40
2007,07,01,01,20,11.40
2007,07,01,01,21,11.40
2007,07,01,01,22,11.40
2007,07,01,01,23,11.40
2007,07,01,01,24,11.40
2007,07,01,01,25,11.40
2007,07,01,01,26,11.50
2007,07,01,01,27,11.50
2007,07,01,01,28,11.50
2007,07,01,01,29,11.50
2007,07,01,01,30,11.50
2007,07,01,01,31,11.50
2007,07,01,01,32,11.50
2007,07,01,01,33,11.50
2007,07,01,01,34,11.50
2007,07,01,01,35,11.50
2007,07,01,01,36,11.50
2007,07,01,01,37,11.50
2007,07,01,01,38,11.50
2007,07,01,01,39,11.50
2007,07,01,01,40,11.50
2007,07,01,01,41,11.40
2007,07,01,01,42,11.40
2007,07,01,01,43,11.40
2007,07,01,01,44,11.40
2007,07,01,01,45,11.40
2007,07,01,01,46,11.40
2007,07,01,01,47,11.40
2007,07,01,01,48,11.40
2007,07,01,01,49,11.40
2007,07,01,01,50,11.40
2007,07,01,01,51,11.40
2007,07,01,01,52,11.40
2007,07,01,01,53,11.50
2007,07,01,01,54,11.50
2007,07,01,01,55,11.50
2007,07,01,01,56,11.50
2007,07,01,01,57,11.50
2007,07,01,01,58,11.60
2007,07,01,01,59,11.60
2007,07,01,02,00,11.60
2007,07,01,02,01,11.60
2007,07,01,02,02,11.60
2007,07,01,02,03,11.60
2007,07,01,02,04,11.60
2007,07,01,02,05,11.70
2007,07,01,02,06,11.70
2007,07,01,02,07,11.70
2007,07,01,02,08,11.70
2007,07,01,02,09,11.70
2007,07,01,02,10,11.70
2007,07,01,02,11,11.70
2007,07,01,02,12,11.70
2007,07,01,02,13,11.70
2007,07,01,02,14,11.70
2007,07,01,02,15,11.80
2007,07,01,02,16,11.80
2007,07,01,02,17,11.80
2007,07,01,02,18,11.80
2007,07,01,02,19,11.80
2007,07,01,02,20,11.80
2007,07,01,02,21,11.80
2007,07,01,02,22,11.80
2007,07,01,02,23,11.80
2007,07,01,02,24,11.80
2007,07,01,02,25,11.80
2007,07,01,02,26,11.80
2007,07,01,02,27,11.80
2007,07,01,02,28,11.80
2007,07,01,02,29,11.80
2007,07,01,02,30,11.80
2007,07,01,02,31,11.80
2007,07,01,02,32,11.80
2007,07,01,02,33,11.80
2007,07,01,02,34,11.80
2007,07,01,02,35,11.80
2007,07,01,02,36,11.80
2007,07,01,02,37,11.80
2007,07,01,02,38,11.80
2007,07,01,02,39,11.80
2007,07,01,02,40,11.80
2007,07,01,02,41,11.80
2007,07,01,02,42,11.80
2007,07,01,02,43,11.70
2007,07,01,02,44,11.70
2007,07,01,02,45,11.70
2007,07,01,02,46,11.70
2007,07,01,02,47,11.70
2007,07,01,02,48,11.70
2007,07,01,02,49,11.60
2007,07,01,02,50,11.60
2007,07,01,02,51,11.60
2007,07,01,02,52,11.60
2007,07,01,02,53,11.60
2007,07,01,02,54,11.50
2007,07,01,02,55,11.50
2007,07,01,02,56,11.50
2007,07,01,02,57,11.50
2007,07,01,02,58,11.50
2007,07,01,02,59,11.50
2007,07,01,03,00,11.50
2007,07,01,03,01,11.50
2007,07,01,03,02,11.50
2007,07,01,03,03,11.50
2007,07,01,03,04,11.50
2007,07,01,03,05,11.50
2007,07,01,03,06,11.50
2007,07,01,03,07,11.40
2007,07,01,03,08,11.40
2007,07,01,03,09,11.40
2007,07,01,03,10,11.30
2007,07,01,03,11,11.30
2007,07,01,03,12,11.30
2007,07,01,03,13,11.20
2007,07,01,03,14,11.20
2007,07,01,03,15,11.10
2007,07,01,03,16,11.10
2007,07,01,03,17,11.10
2007,07,01,03,18,11.00
2007,07,01,03,19,11.00
2007,07,01,03,20,10.90
2007,07,01,03,21,10.90
2007,07,01,03,22,10.80
2007,07,01,03,23,10.80
2007,07,01,03,24,10.80
2007,07,01,03,25,10.80
2007,07,01,03,26,10.80
2007,07,01,03,27,10.70
2007,07,01,03,28,10.70
2007,07,01,03,29,10.70
2007,07,01,03,30,10.70
2007,07,01,03,31,10.70
2007,07,01,03,32,10.70
2007,07,01,03,33,10.70
2007,07,01,03,34,10.60
2007,07,01,03,35,10.60
2007,07,01,03,36,10.60
2007,07,01,03,37,10.60
2007,07,01,03,38,10.60
2007,07,01,03,39,10.60
2007,07,01,03,40,10.60
2007,07,01,03,41,10.50
2007,07,01,03,42,10.50
2007,07,01,03,43,10.50
2007,07,01,03,44,10.40
2007,07,01,03,45,10.40
2007,07,01,03,46,10.40
2007,07,01,03,47,10.40
2007,07,01,03,48,10.40
2007,07,01,03,49,10.40
2007,07,01,03,50,10.30
2007,07,01,03,51,10.30
2007,07,01,03,52,10.30
2007,07,01,03,53,10.30
2007,07,01,03,54,10.30
2007,07,01,03,55,10.30
2007,07,01,03,56,10.30
2007,07,01,03,57,10.30
2007,07,01,03,58,10.30
2007,07,01,03,59,10.30
2007,07,01,04,00,10.20
2007,07,01,04,01,10.20
2007,07,01,04,02,10.20
2007,07,01,04,03,10.20
2007,07,01,04,04,10.20
2007,07,01,04,05,10.20
2007,07,01,04,06,10.20
2007,07,01,04,07,10.20
2007,07,01,04,08,10.20
2007,07,01,04,09,10.20
2007,07,01,04,10,10.20
2007,07,01,04,11,10.10
2007,07,01,04,12,10.10
2007,07,01,04,13,10.10
2007,07,01,04,14,10.10
2007,07,01,04,15,10.10
2007,07,01,04,16,10.10
2007,07,01,04,17,10.10
2007,07,01,04,18,10.10
2007,07,01,04,19,10.10
2007,07,01,04,20,10.10
2007,07,01,04,21,10.00
2007,07,01,04,22,10.00
2007,07,01,04,23,10.00
2007,07,01,04,24,9.90
2007,07,01,04,25,9.90
2007,07,01,04,26,9.90
2007,07,01,04,27,9.90
2007,07,01,04,28,9.90
2007,07,01,04,29,9.90
2007,07,01,04,30,9.90
2007,07,01,04,31,9.90
2007,07,01,04,32,9.90
2007,07,01,04,33,10.00
2007,07,01,04,34,10.00
2007,07,01,04,35,10.00
2007,07,01,04,36,10.00
2007,07,01,04,37,10.00
2007,07,01,04,38,10.00
2007,07,01,04,39,10.00
2007,07,01,04,40,10.00
2007,07,01,04,41,10.00
2007,07,01,04,42,10.10
2007,07,01,04,43,10.10
2007,07,01,04,44,10.10
2007,07,01,04,45,10.10
2007,07,01,04,46,10.10
2007,07,01,04,47,10.10
2007,07,01,04,48,10.10
2007,07,01,04,49,10.10
2007,07,01,04,50,10.10
2007,07,01,04,51,10.10
2007,07,01,04,52,10.20
2007,07,01,04,53,10.20
2007,07,01,04,54,10.20
2007,07,01,04,55,10.20
2007,07,01,04,56,10.20
2007,07,01,04,57,10.20
2007,07,01,04,58,10.20
2007,07,01,04,59,10.20
2007,07,01,05,00,10.20
2007,07,01,05,01,10.30
2007,07,01,05,02,10.30
2007,07,01,05,03,10.30
2007,07,01,05,04,10.30
2007,07,01,05,05,10.30
2007,07,01,05,06,10.30
2007,07,01,05,07,10.30
2007,07,01,05,08,10.40
2007,07,01,05,09,10.40
2007,07,01,05,10,10.40
2007,07,01,05,11,10.40
2007,07,01,05,12,10.40
2007,07,01,05,13,10.40
2007,07,01,05,14,10.40
2007,07,01,05,15,10.40
2007,07,01,05,16,10.40
2007,07,01,05,17,10.40
2007,07,01,05,18,10.40
2007,07,01,05,19,10.40
2007,07,01,05,20,10.40
2007,07,01,05,21,10.50
2007,07,01,05,22,10.50
2007,07,01,05,23,10.50
2007,07,01,05,24,10.50
2007,07,01,05,25,10.50
2007,07,01,05,26,10.50
2007,07,01,05,27,10.50
2007,07,01,05,28,10.60
2007,07,01,05,29,10.60
2007,07,01,05,30,10.60
2007,07,01,05,31,10.60
2007,07,01,05,32,10.60
2007,07,01,05,33,10.70
2007,07,01,05,34,10.70
2007,07,01,05,35,10.70
2007,07,01,05,36,10.70
2007,07,01,05,37,10.70
2007,07,01,05,38,10.70
2007,07,01,05,39,10.70
2007,07,01,05,40,10.70
2007,07,01,05,41,10.70
2007,07,01,05,42,10.70
2007,07,01,05,43,10.70
2007,07,01,05,44,10.70
2007,07,01,05,45,10.70
2007,07,01,05,46,10.70
2007,07,01,05,47,10.70
2007,07,01,05,48,10.70
2007,07,01,05,49,10.70
2007,07,01,05,50,10.70
2007,07,01,05,51,10.70
2007,07,01,05,52,10.70
2007,07,01,05,53,10.70
2007,07,01,05,54,10.70
2007,07,01,05,55,10.70
2007,07,01,05,56,10.70
2007,07,01,05,57,10.70
2007,07,01,05,58,10.70
2007,07,01,05,59,10.60
2007,07,01,06,00,10.60
2007,07,01,06,01,10.60
2007,07,01,06,02,10.60
2007,07,01,06,03,10.60
2007,07,01,06,04,10.60
2007,07,01,06,05,10.60
2007,07,01,06,06,10.60
2007,07,01,06,07,10.60
2007,07,01,06,08,10.60
2007,07,01,06,09,10.60
2007,07,01,06,10,10.60
2007,07,01,06,11,10.60
2007,07,01,06,12,10.60
2007,07,01,06,13,10.70
2007,07,01,06,14,10.70
2007,07,01,06,15,10.70
2007,07,01,06,16,10.70
2007,07,01,06,17,10.70
2007,07,01,06,18,10.70
2007,07,01,06,19,10.80
2007,07,01,06,20,10.80
2007,07,01,06,21,10.90
2007,07,01,06,22,10.90
2007,07,01,06,23,11.00
2007,07,01,06,24,11.10
2007,07,01,06,25,11.10
2007,07,01,06,26,11.20
2007,07,01,06,27,11.20
2007,07,01,06,28,11.30
2007,07,01,06,29,11.30
2007,07,01,06,30,11.40
2007,07,01,06,31,11.40
2007,07,01,06,32,11.50
2007,07,01,06,33,11.60
2007,07,01,06,34,11.70
2007,07,01,06,35,11.80
2007,07,01,06,36,11.80
2007,07,01,06,37,11.90
2007,07,01,06,38,12.00
2007,07,01,06,39,12.10
2007,07,01,06,40,12.20
2007,07,01,06,41,12.30
2007,07,01,06,42,12.40
2007,07,01,06,43,12.50
2007,07,01,06,44,12.50
2007,07,01,06,45,12.60
2007,07,01,06,46,12.70
2007,07,01,06,47,12.70
2007,07,01,06,48,12.80
2007,07,01,06,49,12.80
2007,07,01,06,50,12.90
2007,07,01,06,51,13.00
2007,07,01,06,52,13.10
2007,07,01,06,53,13.20
2007,07,01,06,54,13.20
2007,07,01,06,55,13.30
2007,07,01,06,56,13.30
2007,07,01,06,57,13.40
2007,07,01,06,58,13.40
2007,07,01,06,59,13.50
2007,07,01,07,00,13.50
2007,07,01,07,01,13.60
2007,07,01,07,02,13.70
2007,07,01,07,03,13.70
2007,07,01,07,04,13.70
2007,07,01,07,05,13.80
2007,07,01,07,06,13.80
2007,07,01,07,07,13.80
2007,07,01,07,08,13.80
2007,07,01,07,09,13.80
2007,07,01,07,10,13.80
2007,07,01,07,11,13.80
2007,07,01,07,12,13.80
2007,07,01,07,13,13.80
2007,07,01,07,14,13.80
2007,07,01,07,15,13.80
2007,07,01,07,16,13.80
2007,07,01,07,17,13.80
2007,07,01,07,18,13.80
2007,07,01,07,19,13.80
2007,07,01,07,20,13.80
2007,07,01,07,21,13.80
2007,07,01,07,22,13.90
2007,07,01,07,23,13.90
2007,07,01,07,24,13.90
2007,07,01,07,25,13.90
2007,07,01,07,26,13.90
2007,07,01,07,27,13.90
2007,07,01,07,28,14.00
2007,07,01,07,29,14.00
2007,07,01,07,30,14.00
2007,07,01,07,31,14.00
2007,07,01,07,32,14.00
2007,07,01,07,33,14.00
2007,07,01,07,34,14.00
2007,07,01,07,35,13.90
2007,07,01,07,36,13.90
2007,07,01,07,37,13.90
2007,07,01,07,38,13.80
2007,07,01,07,39,13.80
2007,07,01,07,40,13.80
2007,07,01,07,41,13.80
2007,07,01,07,42,13.90
2007,07,01,07,43,13.90
2007,07,01,07,44,13.90
2007,07,01,07,45,14.00
2007,07,01,07,46,14.10
2007,07,01,07,47,14.20
2007,07,01,07,48,14.40
2007,07,01,07,49,14.50
2007,07,01,07,50,14.70
2007,07,01,07,51,14.80
2007,07,01,07,52,15.00
2007,07,01,07,53,15.00
2007,07,01,07,54,15.00
2007,07,01,07,55,15.20
2007,07,01,07,56,15.30
2007,07,01,07,57,15.40
2007,07,01,07,58,15.40
2007,07,01,07,59,15.60
2007,07,01,08,00,15.60
2007,07,01,08,01,15.70
2007,07,01,08,02,15.80
2007,07,01,08,03,15.90
2007,07,01,08,04,16.10
2007,07,01,08,05,16.10
2007,07,01,08,06,16.20
2007,07,01,08,07,16.30
2007,07,01,08,08,16.40
2007,07,01,08,09,16.50
2007,07,01,08,10,16.50
2007,07,01,08,11,16.70
2007,07,01,08,12,16.70
2007,07,01,08,13,16.80
2007,07,01,08,14,16.80
2007,07,01,08,15,16.90
2007,07,01,08,16,16.90
2007,07,01,08,17,16.90
2007,07,01,08,18,16.90
2007,07,01,08,19,16.90
2007,07,01,08,20,16.90
2007,07,01,08,21,16.90
2007,07,01,08,22,16.90
2007,07,01,08,23,16.80
2007,07,01,08,24,16.80
2007,07,01,08,25,16.90
2007,07,01,08,26,16.90
2007,07,01,08,27,16.90
2007,07,01,08,28,16.90
2007,07,01,08,29,17.00
2007,07,01,08,30,17.00
2007,07,01,08,31,17.10
2007,07,01,08,32,17.20
2007,07,01,08,33,17.20
2007,07,01,08,34,17.30
2007,07,01,08,35,17.30
2007,07,01,08,36,17.30
2007,07,01,08,37,17.30
2007,07,01,08,38,17.30
2007,07,01,08,39,17.30
2007,07,01,08,40,17.30
2007,07,01,08,41,17.40
2007,07,01,08,42,17.40
2007,07,01,08,43,17.30
2007,07,01,08,44,17.30
2007,07,01,08,45,17.30
2007,07,01,08,46,17.30
2007,07,01,08,47,17.30
2007,07,01,08,48,17.30
2007,07,01,08,49,17.20
2007,07,01,08,50,17.10
2007,07,01,08,51,16.90
2007,07,01,08,52,16.90
2007,07,01,08,53,16.70
2007,07,01,08,54,16.40
2007,07,01,08,55,16.20
2007,07,01,08,56,16.00
2007,07,01,08,57,15.80
2007,07,01,08,58,15.70
2007,07,01,08,59,15.60
2007,07,01,09,00,15.50
2007,07,01,09,01,15.50
2007,07,01,09,02,15.40
2007,07,01,09,03,15.40
2007,07,01,09,04,15.30
2007,07,01,09,05,15.30
2007,07,01,09,06,15.30
2007,07,01,09,07,15.30
2007,07,01,09,08,15.30
2007,07,01,09,09,15.40
2007,07,01,09,10,15.50
2007,07,01,09,11,15.60
2007,07,01,09,12,15.80
2007,07,01,09,13,15.90
2007,07,01,09,14,16.10
2007,07,01,09,15,16.30
2007,07,01,09,16,16.50
2007,07,01,09,17,16.60
2007,07,01,09,18,16.70
2007,07,01,09,19,16.80
2007,07,01,09,20,16.70
2007,07,01,09,21,16.70
2007,07,01,09,22,16.60
2007,07,01,09,23,16.60
2007,07,01,09,24,16.60
2007,07,01,09,25,16.60
2007,07,01,09,26,16.70
2007,07,01,09,27,16.80
2007,07,01,09,28,16.80
2007,07,01,09,29,16.90
2007,07,01,09,30,16.90
2007,07,01,09,31,16.90
2007,07,01,09,32,17.00
2007,07,01,09,33,17.10
2007,07,01,09,34,17.20
2007,07,01,09,35,17.30
2007,07,01,09,36,17.30
2007,07,01,09,37,17.40
2007,07,01,09,38,17.50
2007,07,01,09,39,17.60
2007,07,01,09,40,17.60
2007,07,01,09,41,17.60
2007,07,01,09,42,17.60
2007,07,01,09,43,17.60
2007,07,01,09,44,17.60
2007,07,01,09,45,17.60
2007,07,01,09,46,17.60
2007,07,01,09,47,17.50
2007,07,01,09,48,17.50
2007,07,01,09,49,17.50
2007,07,01,09,50,17.50
2007,07,01,09,51,17.50
2007,07,01,09,52,17.60
2007,07,01,09,53,17.60
2007,07,01,09,54,17.60
2007,07,01,09,55,17.70
2007,07,01,09,56,17.60
2007,07,01,09,57,17.60
2007,07,01,09,58,17.50
2007,07,01,09,59,17.50
2007,07,01,10,00,17.40
2007,07,01,10,01,17.40
2007,07,01,10,02,17.40
2007,07,01,10,03,17.40
2007,07,01,10,04,17.50
2007,07,01,10,05,17.60
2007,07,01,10,06,17.60
2007,07,01,10,07,17.60
2007,07,01,10,08,17.50
2007,07,01,10,09,17.40
2007,07,01,10,10,17.40
2007,07,01,10,11,17.40
2007,07,01,10,12,17.50
2007,07,01,10,13,17.60
2007,07,01,10,14,17.70
2007,07,01,10,15,17.90
2007,07,01,10,16,18.00
2007,07,01,10,17,18.00
2007,07,01,10,18,18.00
2007,07,01,10,19,18.10
2007,07,01,10,20,18.20
2007,07,01,10,21,18.30
2007,07,01,10,22,18.40
2007,07,01,10,23,18.50
2007,07,01,10,24,18.40
2007,07,01,10,25,18.30
2007,07,01,10,26,18.10
2007,07,01,10,27,18.00
2007,07,01,10,28,18.00
2007,07,01,10,29,17.90
2007,07,01,10,30,17.80
2007,07,01,10,31,17.70
2007,07,01,10,32,17.60
2007,07,01,10,33,17.60
2007,07,01,10,34,17.50
2007,07,01,10,35,17.40
2007,07,01,10,36,17.30
2007,07,01,10,37,17.30
2007,07,01,10,38,17.40
2007,07,01,10,39,17.50
2007,07,01,10,40,17.60
2007,07,01,10,41,17.70
2007,07,01,10,42,17.80
2007,07,01,10,43,17.80
2007,07,01,10,44,17.80
2007,07,01,10,45,17.90
2007,07,01,10,46,17.90
2007,07,01,10,47,17.90
2007,07,01,10,48,17.90
2007,07,01,10,49,17.90
2007,07,01,10,50,17.90
2007,07,01,10,51,17.90
2007,07,01,10,52,17.80
2007,07,01,10,53,17.80
2007,07,01,10,54,17.80
2007,07,01,10,55,17.80
2007,07,01,10,56,17.80
2007,07,01,10,57,17.80
2007,07,01,10,58,17.70
2007,07,01,10,59,17.80
2007,07,01,11,00,17.90
2007,07,01,11,01,18.00
2007,07,01,11,02,18.10
2007,07,01,11,03,18.20
2007,07,01,11,04,18.10
2007,07,01,11,05,18.10
2007,07,01,11,06,18.10
2007,07,01,11,07,18.10
2007,07,01,11,08,18.10
2007,07,01,11,09,18.00
2007,07,01,11,10,18.00
2007,07,01,11,11,18.10
2007,07,01,11,12,18.10
2007,07,01,11,13,18.10
2007,07,01,11,14,18.10
2007,07,01,11,15,18.00
2007,07,01,11,16,18.00
2007,07,01,11,17,18.10
2007,07,01,11,18,18.10
2007,07,01,11,19,18.20
2007,07,01,11,20,18.10
2007,07,01,11,21,18.00
2007,07,01,11,22,17.90
2007,07,01,11,23,17.90
2007,07,01,11,24,18.00
2007,07,01,11,25,17.90
2007,07,01,11,26,17.80
2007,07,01,11,27,17.70
2007,07,01,11,28,17.70
2007,07,01,11,29,17.70
2007,07,01,11,30,17.70
2007,07,01,11,31,17.70
2007,07,01,11,32,17.80
2007,07,01,11,33,17.80
2007,07,01,11,34,17.80
2007,07,01,11,35,17.90
2007,07,01,11,36,18.00
2007,07,01,11,37,18.10
2007,07,01,11,38,18.20
2007,07,01,11,39,18.20
2007,07,01,11,40,18.30
2007,07,01,11,41,18.20
2007,07,01,11,42,18.20
2007,07,01,11,43,18.10
2007,07,01,11,44,18.10
2007,07,01,11,45,18.10
2007,07,01,11,46,18.20
2007,07,01,11,47,18.30
2007,07,01,11,48,18.40
2007,07,01,11,49,18.40
2007,07,01,11,50,18.40
2007,07,01,11,51,18.50
2007,07,01,11,52,18.60
2007,07,01,11,53,18.70
2007,07,01,11,54,18.80
2007,07,01,11,55,18.90
2007,07,01,11,56,18.90
2007,07,01,11,57,19.00
2007,07,01,11,58,19.00
2007,07,01,11,59,18.80
2007,07,01,12,00,18.70
2007,07,01,12,01,18.60
2007,07,01,12,02,18.60
2007,07,01,12,03,18.60
2007,07,01,12,04,18.60
2007,07,01,12,05,18.60
2007,07,01,12,06,18.60
2007,07,01,12,07,18.50
2007,07,01,12,08,18.40
2007,07,01,12,09,18.20
2007,07,01,12,10,18.10
2007,07,01,12,11,18.00
2007,07,01,12,12,18.00
2007,07,01,12,13,18.00
2007,07,01,12,14,18.10
2007,07,01,12,15,18.20
2007,07,01,12,16,18.20
2007,07,01,12,17,18.20
2007,07,01,12,18,18.20
2007,07,01,12,19,18.30
2007,07,01,12,20,18.20
2007,07,01,12,21,18.20
2007,07,01,12,22,18.30
2007,07,01,12,23,18.40
2007,07,01,12,24,18.50
2007,07,01,12,25,18.60
2007,07,01,12,26,18.60
2007,07,01,12,27,18.70
2007,07,01,12,28,18.70
2007,07,01,12,29,18.60
2007,07,01,12,30,18.60
2007,07,01,12,31,18.60
2007,07,01,12,32,18.70
2007,07,01,12,33,18.70
2007,07,01,12,34,18.70
2007,07,01,12,35,18.70
2007,07,01,12,36,18.80
2007,07,01,12,37,18.90
2007,07,01,12,38,18.80
2007,07,01,12,39,18.80
2007,07,01,12,40,18.70
2007,07,01,12,41,18.60
2007,07,01,12,42,18.60
2007,07,01,12,43,18.50
2007,07,01,12,44,18.40
2007,07,01,12,45,18.40
2007,07,01,12,46,18.50
2007,07,01,12,47,18.60
2007,07,01,12,48,18.60
2007,07,01,12,49,18.60
2007,07,01,12,50,18.70
2007,07,01,12,51,18.80
2007,07,01,12,52,18.70
2007,07,01,12,53,18.70
2007,07,01,12,54,18.70
2007,07,01,12,55,18.80
2007,07,01,12,56,18.60
2007,07,01,12,57,18.50
2007,07,01,12,58,18.50
2007,07,01,12,59,18.40
2007,07,01,13,00,18.30
2007,07,01,13,01,18.20
2007,07,01,13,02,18.20
2007,07,01,13,03,18.20
2007,07,01,13,04,18.30
2007,07,01,13,05,18.50
2007,07,01,13,06,18.50
2007,07,01,13,07,18.60
2007,07,01,13,08,18.60
2007,07,01,13,09,18.70
2007,07,01,13,10,18.80
2007,07,01,13,11,18.90
2007,07,01,13,12,19.00
2007,07,01,13,13,19.10
2007,07,01,13,14,19.20
2007,07,01,13,15,19.30
2007,07,01,13,16,19.30
2007,07,01,13,17,19.20
2007,07,01,13,18,19.20
2007,07,01,13,19,19.20
2007,07,01,13,20,19.20
2007,07,01,13,21,19.10
2007,07,01,13,22,19.10
2007,07,01,13,23,19.10
2007,07,01,13,24,19.20
2007,07,01,13,25,19.30
2007,07,01,13,26,19.30
2007,07,01,13,27,19.40
2007,07,01,13,28,19.50
2007,07,01,13,29,19.60
2007,07,01,13,30,19.70
2007,07,01,13,31,19.70
2007,07,01,13,32,19.80
2007,07,01,13,33,19.80
2007,07,01,13,34,19.80
2007,07,01,13,35,19.80
2007,07,01,13,36,19.60
2007,07,01,13,37,19.40
2007,07,01,13,38,19.10
2007,07,01,13,39,18.90
2007,07,01,13,40,18.90
2007,07,01,13,41,18.90
2007,07,01,13,42,18.90
2007,07,01,13,43,18.90
2007,07,01,13,44,18.80
2007,07,01,13,45,18.80
2007,07,01,13,46,18.80
2007,07,01,13,47,18.80
2007,07,01,13,48,18.90
2007,07,01,13,49,19.00
2007,07,01,13,50,19.10
2007,07,01,13,51,19.20
2007,07,01,13,52,19.20
2007,07,01,13,53,19.30
2007,07,01,13,54,19.30
2007,07,01,13,55,19.20
2007,07,01,13,56,19.10
2007,07,01,13,57,18.90
2007,07,01,13,58,18.80
2007,07,01,13,59,18.80
2007,07,01,14,00,18.90
2007,07,01,14,01,18.90
2007,07,01,14,02,18.90
2007,07,01,14,03,18.90
2007,07,01,14,04,18.90
2007,07,01,14,05,19.00
2007,07,01,14,06,19.10
2007,07,01,14,07,19.10
2007,07,01,14,08,19.20
2007,07,01,14,09,19.00
2007,07,01,14,10,18.90
2007,07,01,14,11,18.90
2007,07,01,14,12,18.80
2007,07,01,14,13,18.70
2007,07,01,14,14,18.60
2007,07,01,14,15,18.60
2007,07,01,14,16,18.50
2007,07,01,14,17,18.30
2007,07,01,14,18,18.20
2007,07,01,14,19,18.20
2007,07,01,14,20,18.20
2007,07,01,14,21,18.20
2007,07,01,14,22,18.20
2007,07,01,14,23,18.20
2007,07,01,14,24,18.20
2007,07,01,14,25,18.30
2007,07,01,14,26,18.20
2007,07,01,14,27,18.20
2007,07,01,14,28,18.30
2007,07,01,14,29,18.30
2007,07,01,14,30,18.40
2007,07,01,14,31,18.40
2007,07,01,14,32,18.40
2007,07,01,14,33,18.40
2007,07,01,14,34,18.40
2007,07,01,14,35,18.40
2007,07,01,14,36,18.40
2007,07,01,14,37,18.40
2007,07,01,14,38,18.40
2007,07,01,14,39,18.40
2007,07,01,14,40,18.40
2007,07,01,14,41,18.40
2007,07,01,14,42,18.50
2007,07,01,14,43,18.50
2007,07,01,14,44,18.50
2007,07,01,14,45,18.50
2007,07,01,14,46,18.50
2007,07,01,14,47,18.50
2007,07,01,14,48,18.60
2007,07,01,14,49,18.60
2007,07,01,14,50,18.70
2007,07,01,14,51,18.70
2007,07,01,14,52,18.70
2007,07,01,14,53,18.70
2007,07,01,14,54,18.70
2007,07,01,14,55,18.70
2007,07,01,14,56,18.60
2007,07,01,14,57,18.50
2007,07,01,14,58,18.50
2007,07,01,14,59,18.60
2007,07,01,15,00,18.70
2007,07,01,15,01,18.60
2007,07,01,15,02,18.60
2007,07,01,15,03,18.60
2007,07,01,15,04,18.60
2007,07,01,15,05,18.60
2007,07,01,15,06,18.60
2007,07,01,15,07,18.60
2007,07,01,15,08,18.60
2007,07,01,15,09,18.60
2007,07,01,15,10,18.60
2007,07,01,15,11,18.70
2007,07,01,15,12,18.70
2007,07,01,15,13,18.80
2007,07,01,15,14,18.90
2007,07,01,15,15,18.90
2007,07,01,15,16,19.00
2007,07,01,15,17,19.10
2007,07,01,15,18,19.10
2007,07,01,15,19,19.10
2007,07,01,15,20,19.00
2007,07,01,15,21,19.00
2007,07,01,15,22,19.10
2007,07,01,15,23,19.10
2007,07,01,15,24,19.10
2007,07,01,15,25,19.20
2007,07,01,15,26,19.20
2007,07,01,15,27,19.20
2007,07,01,15,28,19.30
2007,07,01,15,29,19.30
2007,07,01,15,30,19.30
2007,07,01,15,31,19.30
2007,07,01,15,32,19.30
2007,07,01,15,33,19.30
2007,07,01,15,34,19.30
2007,07,01,15,35,19.30
2007,07,01,15,36,19.40
2007,07,01,15,37,19.40
2007,07,01,15,38,19.50
2007,07,01,15,39,19.50
2007,07,01,15,40,19.60
2007,07,01,15,41,19.50
2007,07,01,15,42,19.40
2007,07,01,15,43,19.40
2007,07,01,15,44,19.30
2007,07,01,15,45,19.40
2007,07,01,15,46,19.40
2007,07,01,15,47,19.40
2007,07,01,15,48,19.40
2007,07,01,15,49,19.20
2007,07,01,15,50,19.10
2007,07,01,15,51,19.00
2007,07,01,15,52,18.90
2007,07,01,15,53,18.90
2007,07,01,15,54,18.70
2007,07,01,15,55,18.60
2007,07,01,15,56,18.60
2007,07,01,15,57,18.60
2007,07,01,15,58,18.70
2007,07,01,15,59,18.80
2007,07,01,16,00,18.80
2007,07,01,16,01,18.90
2007,07,01,16,02,19.00
2007,07,01,16,03,19.10
2007,07,01,16,04,19.20
2007,07,01,16,05,19.30
2007,07,01,16,06,19.20
2007,07,01,16,07,19.20
2007,07,01,16,08,19.30
2007,07,01,16,09,19.30
2007,07,01,16,10,19.30
2007,07,01,16,11,19.30
2007,07,01,16,12,19.20
2007,07,01,16,13,19.10
2007,07,01,16,14,19.00
2007,07,01,16,15,18.90
2007,07,01,16,16,18.90
2007,07,01,16,17,18.80
2007,07,01,16,18,18.70
2007,07,01,16,19,18.80
2007,07,01,16,20,18.80
2007,07,01,16,21,18.90
2007,07,01,16,22,19.00
2007,07,01,16,23,19.10
2007,07,01,16,24,19.20
2007,07,01,16,25,19.20
2007,07,01,16,26,19.30
2007,07,01,16,27,19.40
2007,07,01,16,28,19.40
2007,07,01,16,29,19.40
2007,07,01,16,30,19.30
2007,07,01,16,31,19.30
2007,07,01,16,32,19.20
2007,07,01,16,33,19.10
2007,07,01,16,34,19.00
2007,07,01,16,35,18.90
2007,07,01,16,36,18.80
2007,07,01,16,37,18.70
2007,07,01,16,38,18.60
2007,07,01,16,39,18.60
2007,07,01,16,40,18.50
2007,07,01,16,41,18.50
2007,07,01,16,42,18.40
2007,07,01,16,43,18.40
2007,07,01,16,44,18.40
2007,07,01,16,45,18.40
2007,07,01,16,46,18.40
2007,07,01,16,47,18.40
2007,07,01,16,48,18.30
2007,07,01,16,49,18.30
2007,07,01,16,50,18.40
2007,07,01,16,51,18.40
2007,07,01,16,52,18.50
2007,07,01,16,53,18.50
2007,07,01,16,54,18.40
2007,07,01,16,55,18.10
2007,07,01,16,56,18.00
2007,07,01,16,57,17.90
2007,07,01,16,58,17.80
2007,07,01,16,59,17.80
2007,07,01,17,00,17.90
2007,07,01,17,01,17.90
2007,07,01,17,02,18.00
2007,07,01,17,03,18.00
2007,07,01,17,04,18.00
2007,07,01,17,05,17.90
2007,07,01,17,06,17.80
2007,07,01,17,07,17.60
2007,07,01,17,08,17.50
2007,07,01,17,09,17.40
2007,07,01,17,10,17.20
2007,07,01,17,11,17.20
2007,07,01,17,12,17.20
2007,07,01,17,13,17.20
2007,07,01,17,14,17.10
2007,07,01,17,15,17.20
2007,07,01,17,16,17.20
2007,07,01,17,17,17.20
2007,07,01,17,18,17.30
2007,07,01,17,19,17.30